www.pogodaiklimat.ru

Погода и климат >> Архив погоды >> Иран >> Фердоус


ПОГОДА в Фердоусе

  • Прогноз погоды в Фердоусе
  • Монитор погоды в Фердоусе

АРХИВ ПОГОДЫ в Фердоусе

Время (UTC), дата Ветер
(напр.,м/с)
 
Видим.   Явления Облачность Т
(С)
Тd
(С)
f
(%)
Тe
(С)
Тes
(С)
Комфортность P
(гПа)
Po
(гПа)
Тmin
(С)
Tmax
(С)
R
(мм)
R24
(мм)
S
(см)
12 11.08 СВ 8 15 км ясно +36.5 -1.4 9 +33 +34 жарко 995.0 861.7
15 11.08 СВ 7 12 км ясно +32.5 -2.2 11 +29 +29 жарко 996.8 863.0 +38.1 666
18 11.08 В 3 12 км ясно +29.0 -3.5 12 +26 +26 жарко 997.9 864.8
21 11.08 З 2 12 км ясно +24.2 -3.7 15 +22 +22 комфорт 997.8 864.8
00 12.08 штиль 0 12 км ясно +22.4 -3.8 17 +21 +21 комфорт 998.6 865.1
03 12.08 штиль 0 15 км ясно +24.0 -2.5 17 +22 +25 комфорт 1001.4 867.0 +19.7 666
06 12.08 штиль 0 15 км ясно +32.1 -3.7 10 +28 +48 жарко 1001.1 867.7
09 12.08 СВ 5 15 км ясно +33.8 -2.7 10 +30 +40 жарко 1000.4 866.5
12 12.08 СВ 6 15 км ясно +34.8 -0.2 11 +31 +34 жарко 999.3 865.2
15 12.08 СВ 4 15 км ясно +32.0 +4.4 18 +30 +30 жарко 999.1 865.1 +35.3
18 12.08 С 3 15 км ясно +28.5 +4.9 22 +27 +27 жарко 999.8 866.6
21 12.08 штиль 0 15 км ясно +25.3 +5.0 27 +25 +25 комфорт 999.3 866.0
00 13.08 ЮВ 2 15 км ясно +23.1 +4.4 30 +23 +23 комфорт 1000.0 866.3
03 13.08 штиль 0 12 км ясно +24.6 +5.8 30 +24 +27 комфорт 1002.0 867.8 +21.5
06 13.08 С 7 15 км ясно +29.7 +4.2 20 +28 +32 жарко 1002.1 868.2
09 13.08 С 6 15 км ясно +32.2 +5.3 19 +30 +38 жарко 1002.0 868.0
12 13.08 СВ 5 15 км ясно +32.9 +6.0 19 +31 +35 жарко 1001.4 867.3
15 13.08 СВ 5 15 км ясно +30.4 +5.4 21 +29 +29 жарко 1002.5 867.8 +33.3
18 13.08 В 2 10 км ясно +25.7 +3.2 23 +25 +25 комфорт 1003.9 869.1
21 13.08 Ю 2 15 км ясно +23.2 +2.4 26 +23 +23 комфорт 1004.0 869.2
00 14.08 С 4 12 км ясно +23.3 +4.4 29 +23 +23 комфорт 1003.8 869.2
03 14.08 З 1 15 км ясно +23.9 +5.0 29 +24 +26 комфорт 1005.5 870.3 +21.3 666
06 14.08 С 6 10 км ясно +27.9 +2.5 19 +26 +32 жарко 1006.5 871.0
09 14.08 С 5 12 км ясно +30.8 +0.3 14 +28 +38 жарко 1004.9 869.6 666
12 14.08 С 6 15 км ясно +31.0 -0.5 13 +28 +31 жарко 1004.0 868.9
15 14.08 С 5 15 км ясно +29.2 -2.3 13 +26 +26 жарко 1005.3 869.6 +32.0 666
18 14.08 С 3 15 км ясно +25.1 -1.0 18 +23 +23 комфорт 1006.3 870.6
21 14.08 штиль 0 15 км ясно +21.4 +0.7 25 +21 +21 комфорт 1006.1 870.3
00 15.08 штиль 0 15 км ясно +18.8 +0.1 28 +19 +19 1007.1 870.6
03 15.08 СВ 2 15 км ясно +22.7 +0.4 23 +22 +24 комфорт 1006.9 870.9 +17.4
06 15.08 З 4 18 км ясно +27.1 +0.7 18 +25 +35 комфорт 1006.9 871.0
09 15.08 СЗ 6 18 км ясно +31.7 -5.3 9 +28 +35 жарко 1005.2 869.5
12 15.08 С 6 18 км ясно +33.0 -4.3 9 +29 +32 жарко 1003.7 868.0
15 15.08 С 5 18 км 1/0
[Ci fib]
+29.2 -3.7 11 +26 +26 жарко 1004.1 868.4 +33.6
18 15.08 СВ 2 15 км ясно +24.3 -2.1 17 +23 +23 комфорт 1005.2 869.3
21 15.08 СВ 2 15 км ясно +23.8 -1.6 18 +22 +22 комфорт 1003.9 869.0
00 16.08 В 2 15 км ясно +20.3 -1.7 23 +21 +21 комфорт 1004.1 868.6
03 16.08 С 2 20 км ясно +24.2 -0.9 19 +23 +25 комфорт 1004.4 869.0 +17.9
06 16.08 С 3 20 км ясно +29.9 -1.3 13 +27 +39 жарко 1004.5 869.3
09 16.08 СЗ 5 20 км ясно +32.3 -4.5 9 +28 +38 жарко 1002.9 868.2
12 16.08 СВ 5 20 км ясно +32.5 -4.3 9 +29 +32 жарко 1002.4 867.1
15 16.08 СВ 6 20 км ясно +29.0 -4.4 11 +26 +26 жарко 1002.5 867.0 +33.6 666
18 16.08 В 4 12 км ясно +24.2 -3.8 15 +22 +22 комфорт 1003.5 868.3
21 16.08 ЮВ 3 12 км ясно +21.4 -3.6 18 +20 +20 1003.8 868.5
00 17.08 ЮВ 2 12 км ясно +17.6 -3.9 23 +18 +18 1004.4 868.3
03 17.08 штиль 0 15 км ясно +18.8 -2.5 23 +19 +22 1005.1 868.4 +15.4
06 17.08 З 5 15 км ясно +26.5 -3.7 13 +24 +32 комфорт 1003.8 867.9
09 17.08 З 5 12 км ясно +31.6 -6.3 8 +28 +37 жарко 1001.7 866.5 666
12 17.08 С 5 12 км ясно +35.0 -11.8 4 +30 +34 жарко 1000.0 864.9
15 17.08 СВ 5 12 км ясно +30.4 -5.4 9 +27 +27 жарко 1000.9 865.1 +35.3
18 17.08 З 2 12 км ясно +25.8 -5.4 12 +23 +23 комфорт 1001.6 866.3
21 17.08 В 2 12 км ясно +20.7 -4.7 18 +21 +21 комфорт 1002.3 866.8
00 18.08 штиль 0 12 км ясно +17.1 -6.7 19 +17 +17 1002.3 866.8
03 18.08 штиль 0 15 км ясно +21.6 -4.2 17 +21 +23 комфорт 1003.9 868.1 +15.5
06 18.08 З 2 18 км ясно +28.7 -3.6 12 +26 +40 жарко 1003.9 868.8
09 18.08 З 4 18 км ясно +33.1 -3.5 9 +29 +41 жарко 1003.1 867.9

 

Местоположение метеостанции Фердоус (Иран): широта 34.02 долгота 58.17 высота над уровнем моря 1293 м.

В архиве по умолчанию представлена погода в Фердоусе за последнюю неделю. Архивные данные за месяц целиком и за предыдущие месяцы, начиная с января 2011 года, Вы можете получить, выбрав интересующий диапазон дат из раскрывающегося списка и нажав кнопку "Ввод!".


*Определитесь, кто Вы:
робот инопланетянин человек

Внимание! Время в таблицах - всемирное. Для получения местного времени необходимо прибавить поправку, которая равна 3.5 ч.

Смотрите также архив погоды в соседних городах и на ближайших метеорологических станциях:

Погода в Табасе (Иран) (125 км)
Погода в Кашмаре (Иран) (134 км)
Погода в Бирдженде (Иран) (160 км)
Погода в Торбете-Хейдерие (Иран) (169 км)
Погода в Себзеваре (Иран) (249 км)
Погода в Мешхеде (Иран) (283 км)
Погода в Хоре (Иран) (287 км)
Погода в Нехбандане (Иран) (327 км)
Погода в Кучане (Иран) (341 км)
Погода в Герате (Афганистан) (374 км)

Пояснения к столбцам:

Ветер - указаны скорость ветра в м/с - средняя за 10 мин, порывы в срок и между сроками (в фигурных скобках) и направление, откуда дует ветер: С - северный, СВ - северо-восточный, В - восточный, ЮВ - юго-восточный, Ю - южный, ЮЗ - юго-западный, З - западный, СЗ - северо-западный.
Видимость - горизонтальная дальность видимости в метрах или километрах. При видимости от 1 до 10 км при отсутствии осадков обычно наблюдается дымка, при ухудшении видимости до 1 км и менее - туман. В сухую погоду видимость может ухудшаться дымом, пылью или мглою.
Явления - указаны атмосферные явления, наблюдавшиеся в срок или в последний час перед сроком; фигурными скобками обозначены явления, наблюдавшиеся между сроками (за 1-3 часа до срока); квадратными скобками обозначены град или гололедные отложения с указанием их диаметра в мм.
Облачность - указаны через наклонную черту общая и нижняя облачность в баллах и высота нижней границы облаков в метрах; квадратными скобками обозначены формы облаков: Ci - перистые, Cs - перисто-слоистые, Cc - перисто-кучевые, Ac - высококучевые, As - высокослоистые, Sc - слоисто-кучевые, Ns - слоисто-дождевые, Cu - кучевые, Cb - кучево-дождевые. Подробнее классификацию облаков см. в Атласе облаков (PDF).
T - Температура воздуха - температура, измеренная на высоте 2 м над землей.
Td - Температура точки росы - температура, при понижении до которой содержащийся в воздухе водяной пар достигнет насыщения.
f - Относительная влажность воздуха - влажноcть воздуха, измеренная на высоте 2 м над землей.
Te - Эффективная температура - температура, которую ощущает одетый по сезону человек в тени. Характеристика душности погоды. При расчете учитывается влияние влажности воздуха и скорости ветра на теплоощущения человека.
Tes - Эффективная температура на солнце - температура, которую ощущает человек, с поправкой на солнечный нагрев. Характеристика знойности погоды. Зависит от высоты солнца над горизонтом, облачности и скорости ветра. Ночью, в пасмурную погоду, а также при ветре 12 м/с и более поправка равна нулю.
P - Атмосферное давление - приведенное к уровню моря атмосферное давление.
Po - Атмосферное давление - измеренное на уровне метеостанции атмосферное давление.
Tmin - Минимальная температура - минимум температуры воздуха на высоте 2 м над землей.
Tmax - Максимальная температура - максимум температуры воздуха на высоте 2 м над землей.
R - Количество осадков - Количество выпавших осадков за период времени, мм. При наведении курсора мыши на число - период времени, за который выпало указанное количество осадков.
R24 - Количество осадков - Количество выпавших осадков за 24 часа, мм.
S - Снежный покров - Высота снежного покрова, см. При наведении курсора мыши на число - состояние снежного покрова и степень покрытия местности в баллах.